STARLINK-4433 (53478 NORAD) Tracking and Keplerian Element Data

This shows tracking and keplerian element data for the satellite.

Feedback or suggestion? Click here.




ElementValue
Catalog53478
NameSTARLINK-4433
Epoch Orbit1546
Epoch Day324.90482263
Epoch Year2022
RAAN83.9418
Inclination97.6538
Eccentricity7.5E-06
Argument of Perigee179.3625
Mean Anonmoly180.7599
Mean Motion15.01270561
Decay Rate-1.968E-05
L11 53478U 22099P 22324.90482263 -.00001968 00000+0 -14861-3 0 9994
L22 53478 97.6538 83.9418 0000075 179.3625 180.7599 15.01270561 15468



Live tracking and technical data element details for STARLINK-4433 (NORAD 53478). STARLINK-4433 can be tracked NOW for your location showing map with azimuth and elevation plus other details from your city location.







IsCatalogInMostPopularTable: catalog: 53478, numindb: 4
Update: records affected: 1



GetName: 53478 STARLINK-4433

Hit Count: updated at: Thu, 08 Dec 2022 20:48:09 GMT